STARLINK-37059, 68088

Orbit data source: Space-Track

STARLINK-37059, 68088 is a payload satellite owned by SpaceX/Seattle (US) in LEO that was launched on Wed, 04 Mar 2026 UTC via an FALCON 9 launch vehicle from the Air Force Eastern Test Range (AFETR). Payload-class satellites include a variety of spacecraft equipped with specific instruments for various scientific and technological missions. These include communications satellites like Starlink; space stations such as the ISS; scientific satellites like the Hubble; Earth observation satellites from companies like Planet Labs, Umbra, and HawkEye 360; GPS; miniature CubeSats for education and research; and military/defense satellites.

Loading next visibility...
Identifier
68088, 2026-042V
Orbit
LEO
Country
Flag of USUS
Related business
Manufacturer
SpaceX/Seattle
Mission
Operational Commercial Communications
Bus & Motor
STARLINK V2MO, Unknown motor
Mass
575 kg wet, ~530 kg dry
Launch date (UTC)
2026-03-04 (2 months ago)
Launch vehicle
FALCON 9
Launch site
Air Force Eastern Test Range (AFETR)
Object type
Payload
Rocket body
Debris
Shape & HBR
Box + 2 Pan, 17.7 m
Radar Cross Section
36.964 m²

Expand to show TLE details & history
Last TLE update: 10 hours ago

TLE from 10 hours ago
0 STARLINK-37059
1 68088U 26042V   26119.21708948  .00076601  00000-0  13706-2 0  9991
2 68088  53.1590 304.5665 0001770  69.5427 290.5772 15.49335249 10033
Epoch: 2026-04-29T05:12Z
TLE epoch observation values (Epoch: 2026-04-29T05:12:36.531Z)
Latitude
Longitude
9.23307°
Altitude
419.154 km
Speed
7.661 km/s
True Right ascension
20h 18m 15s
True Declination
0° 00' 00"
Sunlit
Object was in daylight at epoch
Visualization orbit readout
Latitude
Unknown
Longitude
Unknown
Altitude
Unknown
Speed
Unknown
Apparent Right ascension
Unknown
Apparent Declination
Unknown
Sunlit
N/A
Visualization observer readout
Local Sidereal Time
22:53:20
Azimuth
Unknown
Elevation
Unknown
Doppler factor
Unknown
Orbital elements
Apogee altitude
420.131 km
Perigee altitude
417.725 km
Semi-major axis
6,797.065 km
Eccentricity
0.00018
Inclination
53.159°
RAAN
304.5665°
Arg. of periapsis
69.5427°
True anomaly
290.55821°
Mean anomaly
290.5772°
Eccentric anomaly
290.56771°
Mean motion
3.87312 °/min
Orbital period
92.95 mins
BSTAR
0.0013706
Loading maneuver chart data...
Computing Atmospheric mass density...
Loading historical data...
Loading historical data...
Loading historical data...
Loading historical data...
Loading historical data...
Loading historical data...
Loading historical data...

Documentation

Showing up to 5 results
|